User: anonymous   Login
Location: Maiden
(35.5760°N, 81.2120°W)
Time: 21:40:23
(UTC-05:00)
Language:

Cosmos 2151 - Orbit

View from above orbital plane
View from above orbital plane
View from above satellite
View from above satellite

Ground track
Ground track

The orbit data is extracted from the following two-line orbital elements,

1 21422U 91042A   18020.17617030  .00000176  00000-0  14864-4 0  9994
2 21422  82.4989  39.9506 0012701 292.5487  67.4388 14.91917388440851
Epoch (UTC): 20 January 2018 04:13:41
Eccentricity: 0.0012701
inclination: 82.4989°
perigee height: 583 km
apogee height: 601 km
right ascension of ascending node: 39.9506°
argument of perigee: 292.5487°
revolutions per day: 14.91917388
mean anomaly at epoch: 67.4388°
orbit number at epoch: 44085

The dashed part of the orbit path shows where the satellite is in the earth's shadow,  

DLR